• Join FlightAware (Why Join?)
  • Login
  • US Flag 
06:39AM EDT


 

Airport Tracker/Info


-or-


 

Live Flight TrackerFlight Track Log ✈ FSR411 ✈ 09-Oct-2013 ✈ KCMI - KFLL

Flight Track Log - Related Links

Times and Time Zones

All times are in EDT time to prevent confusion due to time zone crossing. See the FSR411 flight status page for this flight to view local times or setup timezone preferences in your user account.

Time Position Orientation Groundspeed Altitude Reporting Facility
EDT Latitude Longitude Course Direction KTS MPH feet Rate Location/Type
04:04AM 40.0253 -88.2572 169° South 153 176 1,900  Level Chicago Center
04:05AM 39.9714 -88.2433 169° South 191 220 4,100 2,400 Climbing Chicago Center
04:06AM 39.9019 -88.2103 160° South 253 291 6,800 2,700 Climbing Chicago Center
04:07AM 39.8692 -88.1978 164° South 262 302 8,300 2,160 Climbing Kansas City Center
04:08AM 39.7897 -88.1614 161° South 291 335 10,100 2,040 Climbing Kansas City Center
04:09AM 39.6997 -88.1164 159° South 337 388 12,500 2,880 Climbing Kansas City Center
04:10AM 39.6061 -88.0753 161° South 346 398 15,900 3,360 Climbing Indianapolis Center
04:11AM 39.5064 -88.0297 161° South 359 413 19,000 3,060 Climbing Indianapolis Center
04:12AM 39.3975 -87.9789 160° South 392 451 22,100 2,640 Climbing Indianapolis Center
04:13AM 39.2858 -87.9294 161° South 411 473 24,400 2,220 Climbing Indianapolis Center
04:14AM 39.1719 -87.8761 160° South 430 495 26,600 1,980 Climbing Indianapolis Center
04:15AM 39.0556 -87.8247 161° South 440 506 28,500 1,860 Climbing Indianapolis Center
04:16AM 38.9392 -87.7694 160° South 444 511 30,400 1,800 Climbing Indianapolis Center
04:17AM 38.8206 -87.7175 161° South 448 516 32,200 1,680 Climbing Indianapolis Center
04:18AM 38.7036 -87.6644 161° South 446 513 33,800 1,560 Climbing Indianapolis Center
04:19AM 38.5861 -87.6119 161° South 446 513 35,400 1,500 Climbing Indianapolis Center
04:20AM 38.4711 -87.5608 161° South 441 507 36,800 1,200 Climbing Indianapolis Center
04:21AM 38.3564 -87.5106 161° South 438 504 37,900 540 Climbing Indianapolis Center
04:22AM 38.2383 -87.4572 160° South 450 518 38,000 120 Climbing Indianapolis Center
04:23AM 38.1167 -87.4047 161° South 463 533 38,200 540 Climbing Indianapolis Center
04:24AM 38.0006 -87.3419 157° South 457 526 39,100 780 Climbing Indianapolis Center
04:25AM 37.8911 -87.2603 150° Southeast 458 527 39,800 660 Climbing Indianapolis Center
04:26AM 37.7794 -87.1819 151° Southeast 459 528 40,500 540 Climbing Indianapolis Center
04:27AM 37.6683 -87.1042 151° Southeast 457 526 41,000 240 Climbing Indianapolis Center
04:28AM 37.5564 -87.0253 151° Southeast 460 529 41,000  Level Indianapolis Center
04:29AM 37.4269 -86.9392 152° Southeast 456 525 41,000  Level Indianapolis Center
04:30AM 37.3133 -86.8614 151° Southeast 459 528 41,000  Level Indianapolis Center
04:31AM 37.2008 -86.7822 151° Southeast 459 528 41,000  Level Indianapolis Center
04:32AM 37.0869 -86.7042 151° Southeast 461 531 41,000  Level Indianapolis Center
04:33AM 36.9922 -86.6394 151° Southeast 461 531 41,000  Level Indianapolis Center
04:34AM 36.8781 -86.5614 151° Southeast 461 531 41,000  Level Indianapolis Center
04:35AM 36.7636 -86.4831 151° Southeast 461 531 41,000  Level Indianapolis Center
04:36AM 36.6506 -86.4053 151° Southeast 458 527 41,000  Level Indianapolis Center
04:37AM 36.5358 -86.3289 152° Southeast 460 529 41,000  Level Indianapolis Center
04:38AM 36.4211 -86.2511 151° Southeast 462 532 41,000  Level Indianapolis Center
04:39AM 36.3064 -86.1742 152° Southeast 462 532 41,000  Level Indianapolis Center
04:40AM 36.1922 -86.0983 152° Southeast 460 529 41,000  Level Indianapolis Center
04:42AM 35.9167 -85.9156 152° Southeast 458 527 41,000  Level Atlanta Center
04:43AM 35.8053 -85.8464 153° Southeast 452 520 41,000  Level Atlanta Center
04:44AM 35.6914 -85.7697 151° Southeast 452 520 41,000  Level Atlanta Center
04:45AM 35.5800 -85.6933 151° Southeast 452 520 41,000  Level Atlanta Center
04:46AM 35.4683 -85.6197 152° Southeast 452 520 41,000  Level Atlanta Center
04:47AM 35.3544 -85.5489 153° Southeast 452 520 41,000  Level Atlanta Center
04:48AM 35.2406 -85.4756 152° Southeast 452 520 41,000  Level Atlanta Center
04:49AM 35.1267 -85.4025 152° Southeast 452 520 41,000  Level Atlanta Center
04:50AM 35.0147 -85.3272 151° Southeast 452 520 41,000  Level Atlanta Center
04:51AM 34.8986 -85.2544 153° Southeast 458 527 41,000  Level Atlanta Center
04:52AM 34.7867 -85.1819 152° Southeast 463 533 41,000  Level Atlanta Center
04:53AM 34.6703 -85.1097 153° Southeast 463 533 41,000  Level Atlanta Center
04:54AM 34.5603 -85.0325 150° Southeast 463 533 41,000  Level Atlanta Center
04:55AM 34.4461 -84.9608 153° Southeast 463 533 41,000  Level Atlanta Center
04:56AM 34.3319 -84.8892 153° Southeast 463 533 41,000  Level Atlanta Center
04:57AM 34.2156 -84.8150 152° Southeast 468 539 41,000  Level Atlanta Center
04:58AM 34.0969 -84.7436 154° Southeast 469 540 41,000  Level Atlanta Center
04:59AM 33.9806 -84.6700 152° Southeast 474 545 41,000  Level Atlanta Center
05:00AM 33.8661 -84.5992 153° Southeast 469 540 41,000  Level Atlanta Center
05:01AM 33.7514 -84.5308 154° Southeast 469 540 41,000  Level Atlanta Center
05:02AM 33.6517 -84.4631 150° Southeast 469 540 41,000  Level Atlanta Center
05:03AM 33.5161 -84.3850 154° Southeast 469 540 41,000  Level Atlanta Center
05:04AM 33.3994 -84.3125 153° Southeast 475 547 41,000  Level Atlanta Center
05:05AM 33.2869 -84.2400 152° Southeast 463 533 41,000  Level Atlanta Center
05:06AM 33.1700 -84.1703 153° Southeast 468 539 41,000  Level Atlanta Center
05:07AM 33.0617 -84.1058 153° Southeast 468 539 41,000  Level Atlanta Center
05:08AM 32.9406 -84.0264 151° Southeast 468 539 41,000  Level Atlanta Center
05:09AM 32.8236 -83.9572 154° Southeast 468 539 41,000  Level Atlanta Center
05:10AM 32.7086 -83.8858 152° Southeast 468 539 41,000  Level Atlanta Center
05:11AM 32.5981 -83.8169 152° Southeast 468 539 41,000  Level Atlanta Center
05:14AM 32.3292 -83.6547 153° Southeast 458 527 41,000  Level Jacksonville Center
05:15AM 32.2189 -83.5875 153° Southeast 453 521 41,000  Level Jacksonville Center
05:16AM 32.1044 -83.5206 154° Southeast 453 521 41,000  Level Jacksonville Center
05:17AM 31.9919 -83.4536 153° Southeast 453 521 41,000  Level Jacksonville Center
05:18AM 31.8794 -83.3844 152° Southeast 453 521 41,000  Level Jacksonville Center
05:19AM 31.7544 -83.3103 153° Southeast 453 521 41,000  Level Jacksonville Center
05:20AM 31.6419 -83.2464 154° Southeast 448 516 41,000  Level Jacksonville Center
05:21AM 31.5272 -83.1778 153° Southeast 448 516 41,000  Level Jacksonville Center
05:22AM 31.4167 -83.1142 154° Southeast 448 516 41,000  Level Jacksonville Center
05:23AM 31.3042 -83.0481 153° Southeast 448 516 41,000  Level Jacksonville Center
05:24AM 31.1914 -82.9825 154° Southeast 448 516 41,000  Level Jacksonville Center
05:25AM 31.0997 -82.9289 153° Southeast 448 516 41,000  Level Jacksonville Center
05:26AM 30.9806 -82.8611 154° Southeast 443 510 41,000  Level Jacksonville Center
05:27AM 30.8553 -82.7908 154° Southeast 443 510 41,000  Level Jacksonville Center
05:28AM 30.7444 -82.7258 153° Southeast 443 510 41,000  Level Jacksonville Center
05:29AM 30.6339 -82.6608 153° Southeast 443 510 41,000  Level Jacksonville Center
05:30AM 30.5231 -82.5983 154° Southeast 443 510 41,000  Level Jacksonville Center
05:31AM 30.4122 -82.5314 152° Southeast 443 510 41,000  Level Jacksonville Center
05:32AM 30.2992 -82.4692 155° Southeast 443 510 41,000  Level Jacksonville Center
05:33AM 30.1883 -82.4047 153° Southeast 443 510 41,000  Level Jacksonville Center
05:34AM 30.0775 -82.3428 154° Southeast 443 510 41,000  Level Jacksonville Center
05:35AM 29.9664 -82.2789 154° Southeast 443 510 41,000  Level Jacksonville Center
05:37AM 29.7358 -82.1450 153° Southeast 459 528 41,000  Level Miami Center
05:38AM 29.6256 -82.0825 154° Southeast 459 528 41,000  Level Miami Center
05:39AM 29.5256 -82.0275 154° Southeast 452 520 41,000  Level Miami Center
05:40AM 29.4028 -81.9597 154° Southeast 452 520 41,000  Level Miami Center
05:41AM 29.2906 -81.8975 154° Southeast 452 520 41,000  Level Miami Center
05:42AM 29.1822 -81.8356 153° Southeast 447 514 41,000  Level Miami Center
05:43AM 29.0675 -81.7733 155° Southeast 447 514 41,000  Level Miami Center
05:44AM 28.9672 -81.7167 154° Southeast 447 514 41,000  Level Miami Center
05:45AM 28.8589 -81.6575 154° Southeast 452 520 41,000  Level Miami Center
05:46AM 28.7481 -81.5983 155° Southeast 447 514 41,000  Level Miami Center
05:47AM 28.6375 -81.5367 154° Southeast 442 509 41,000  Level Miami Center
05:48AM 28.5289 -81.4756 154° Southeast 437 503 41,000  Level Miami Center
05:49AM 28.4122 -81.4069 153° Southeast 437 503 41,000  Level Miami Center
05:50AM 28.3036 -81.3483 155° Southeast 430 495 41,000  Level Miami Center
05:51AM 28.1947 -81.2900 155° Southeast 430 495 41,000  Level Miami Center
05:52AM 28.0961 -81.2367 154° Southeast 435 501 41,000 -120 Level Miami Center
05:53AM 27.9914 -81.1786 154° Southeast 440 506 40,800 -1,380 Descending Miami Center
05:54AM 27.8744 -81.1153 154° Southeast 435 501 38,400 -2,460 Descending Miami Center
05:55AM 27.7614 -81.0547 155° Southeast 434 499 36,000 -2,460 Descending Miami Center
05:56AM 27.6544 -80.9969 154° Southeast 439 505 33,500 -2,520 Descending Miami Center
05:57AM 27.5436 -80.9392 155° Southeast 439 505 31,000 -2,640 Descending Miami Center
05:58AM 27.4367 -80.8769 153° Southeast 439 505 28,300 -2,760 Descending Miami Center
05:59AM 27.3214 -80.8192 156° South 439 505 25,600 -2,700 Descending Miami Center
06:00AM 27.2081 -80.7592 155° Southeast 445 512 22,900 -2,700 Descending Miami Center
06:01AM 27.0969 -80.6994 154° Southeast 450 518 20,300 -2,520 Descending Miami Center
06:02AM 26.9881 -80.6375 153° Southeast 450 518 17,900 -2,340 Descending Miami Center
06:03AM 26.8850 -80.5831 155° Southeast 419 482 15,700 -1,980 Descending Miami Center
06:04AM 26.7819 -80.5286 155° Southeast 414 476 14,000 -1,860 Descending Miami Center
06:04AM 26.7717 -80.5236 157° South 408 470 13,800 -1,620 Descending Miami Center
06:04AM 26.7550 -80.5183 164° South 410 472 13,600 -1,560 Descending Miami Center
06:05AM 26.6872 -80.4792 153° Southeast 414 476 12,300 -1,920 Descending Miami Center
06:05AM 26.6500 -80.4617 157° South 405 466 11,600 -1,380 Descending Miami Center
06:06AM 26.5781 -80.4200 153° Southeast 401 461 11,000 -600 Descending Miami Center
06:06AM 26.5511 -80.4100 162° South 384 442 11,000  Level Miami Center
06:07AM 26.4914 -80.3756 153° Southeast 396 456 11,000 -420 Level Miami Center
06:07AM 26.4519 -80.3583 159° South 360 414 10,600 -1,200 Descending Miami Center
06:08AM 26.3983 -80.3311 156° South 358 412 9,800 -1,380 Descending Miami Center
06:08AM 26.3714 -80.3258 170° South 292 336 9,300 -1,620 Descending Miami Center
06:09AM 26.3300 -80.3058 157° South 315 362 8,300 -1,620 Descending Miami Center
06:09AM 26.2969 -80.2958 165° South 291 335 7,600 -1,260 Descending Miami Center
06:10AM 26.2617 -80.2786 156° South 293 337 7,000 -600 Descending Miami Center
06:10AM 26.2203 -80.2658 165° South 288 331 7,000 -240 Level Miami Center
06:11AM 26.1789 -80.2461 157° South 287 330 6,800 -720 Descending Miami Center
06:11AM 26.1439 -80.2289 156° South 291 335 6,300 -840 Descending Miami Center
06:12AM 26.1344 -80.1822 103° East 268 308 6,000 -540 Descending Miami Center
06:12AM 26.1353 -80.1431 89° East 269 310 5,800 -840 Descending Miami Center
06:13AM 26.1447 -80.0992 77° East 232 267 5,200 -840 Descending Miami Center
06:13AM 26.1475 -80.0647 85° East 248 285 5,000 -900 Descending Miami Center
06:14AM 26.1550 -80.0069 82° East 222 255 4,100 -660 Descending Miami Center
06:15AM 26.1481 -79.9444 97° East 206 237 3,800 -600 Descending Miami Center
06:16AM 26.0936 -79.9475 183° South 206 237 3,000 -600 Descending Miami Center
06:17AM 26.0719 -79.9886 240° Southwest 156 180 2,600 -600 Descending Miami Center
06:18AM 26.0750 -80.0394 274° West 148 170 1,800 -780 Descending Miami Center
06:19AM 26.0719 -80.0811 265° West 137 158 1,100 -660 Descending Miami Center
06:20AM 26.0753 -80.1181 276° West 117 135 500 -600 Descending Miami Center
06:22AM 26.0667 -80.1500 238° Southwest  Level FlightAware Approximate
06:29AM 26.0726 -80.1527 238° Southwest  Level Estimated
06:30AM 26.0667 -80.1500 238° Southwest  Level FlightAware Approximate
06:31AM 26.0726 -80.1527 238° Southwest  Level Estimated
06:32AM 26.0667 -80.1500 238° Southwest  Level FlightAware Approximate
06:33AM 26.0726 -80.1527 238° Southwest  Level Estimated